| time (UTC) | temp C | wind direction | speed KPH | gust KPH | rain 1hr cm | rain 24hr cm | rain mn cm | humidity % | barometer mb |
| 20260504215242 | 22 | 245 | 4.8 | 20.9 | 0.00 | 0.00 | 0.00 | 38 | 997.6 |
| 20260504214743 | 22 | 279 | 6.4 | 20.9 | 0.00 | 0.00 | 0.00 | 37 | 997.6 |
| 20260504214240 | 22 | 224 | 4.8 | 14.5 | 0.00 | 0.00 | 0.00 | 38 | 997.6 |
| 20260504213742 | 22 | 92 | 4.8 | 14.5 | 0.00 | 0.00 | 0.00 | 38 | 997.7 |
| 20260504213238 | 22 | 188 | 4.8 | 14.5 | 0.00 | 0.00 | 0.00 | 37 | 997.6 |
| 20260504212739 | 22 | 219 | 6.4 | 16.1 | 0.00 | 0.00 | 0.00 | 37 | 997.7 |
| 20260504212458 | 22 | 188 | 6.4 | 19.3 | 0.00 | 0.00 | 0.00 | 37 | 997.7 |
| 20260504212000 | 22 | 205 | 6.4 | 19.3 | 0.00 | 0.00 | 0.00 | 36 | 997.7 |
| 20260504211230 | 22 | 225 | 6.4 | 17.7 | 0.00 | 0.00 | 0.00 | 36 | 997.6 |
| 20260504210731 | 22 | 269 | 6.4 | 17.7 | 0.00 | 0.00 | 0.00 | 36 | 997.7 |
| 20260504210231 | 22 | 290 | 8.0 | 17.7 | 0.00 | 0.00 | 0.00 | 38 | 997.7 |
| 20260504205731 | 23 | 219 | 8.0 | 17.7 | 0.00 | 0.00 | 0.00 | 36 | 997.7 |
| 20260504205231 | 23 | 111 | 8.0 | 24.1 | 0.00 | 0.00 | 0.00 | 35 | 997.6 |
| 20260504204733 | 23 | 197 | 6.4 | 24.1 | 0.00 | 0.00 | 0.00 | 37 | 997.6 |
| 20260504204233 | 23 | 279 | 6.4 | 24.1 | 0.00 | 0.00 | 0.00 | 37 | 997.7 |
| 20260504203731 | 23 | 229 | 6.4 | 24.1 | 0.00 | 0.00 | 0.00 | 39 | 997.7 |
| 20260504203233 | 23 | 217 | 4.8 | 16.1 | 0.00 | 0.00 | 0.00 | 37 | 997.7 |
| 20260504202727 | 23 | 219 | 4.8 | 16.1 | 0.00 | 0.00 | 0.00 | 37 | 997.6 |
| 20260504202228 | 23 | 211 | 4.8 | 16.1 | 0.00 | 0.00 | 0.00 | 39 | 997.8 |
| 20260504201727 | 23 | 213 | 8.0 | 19.3 | 0.00 | 0.00 | 0.00 | 38 | 997.9 |
| 20260504201453 | 23 | 232 | 8.0 | 19.3 | 0.00 | 0.00 | 0.00 | 35 | 997.8 |
| 20260504200729 | 23 | 200 | 6.4 | 19.3 | 0.00 | 0.00 | 0.00 | 36 | 997.8 |
| 20260504200451 | 23 | 225 | 8.0 | 20.9 | 0.00 | 0.00 | 0.00 | 36 | 997.9 |
| 20260504195728 | 23 | 227 | 8.0 | 20.9 | 0.00 | 0.00 | 0.00 | 36 | 998.0 |
| 20260504195229 | 23 | 233 | 6.4 | 17.7 | 0.00 | 0.00 | 0.00 | 38 | 998.0 |
| 20260504194728 | 23 | 202 | 6.4 | 14.5 | 0.00 | 0.00 | 0.00 | 37 | 998.0 |
| 20260504194449 | 23 | 162 | 6.4 | 17.7 | 0.00 | 0.00 | 0.00 | 35 | 998.0 |
| 20260504193728 | 23 | 219 | 6.4 | 17.7 | 0.00 | 0.00 | 0.00 | 34 | 998.0 |
| 20260504193227 | 23 | 214 | 4.8 | 14.5 | 0.00 | 0.00 | 0.00 | 37 | 998.1 |
| 20260504192727 | 23 | 121 | 6.4 | 17.7 | 0.00 | 0.00 | 0.00 | 36 | 998.1 |
| 20260504192452 | 23 | 272 | 6.4 | 17.7 | 0.00 | 0.00 | 0.00 | 37 | 998.1 |
| 20260504191953 | 23 | 246 | 4.8 | 12.9 | 0.00 | 0.00 | 0.00 | 36 | 998.3 |
| 20260504191227 | 23 | 217 | 4.8 | 16.1 | 0.00 | 0.00 | 0.00 | 39 | 998.3 |
| 20260504190953 | 23 | 211 | 4.8 | 16.1 | 0.00 | 0.00 | 0.00 | 39 | 998.4 |
| 20260504190226 | 22 | 189 | 6.4 | 17.7 | 0.00 | 0.00 | 0.00 | 39 | 998.5 |
| 20260504185727 | 22 | 241 | 8.0 | 17.7 | 0.00 | 0.00 | 0.00 | 37 | 998.6 |
| 20260504185440 | 22 | 200 | 8.0 | 17.7 | 0.00 | 0.00 | 0.00 | 37 | 998.7 |
| 20260504184715 | 22 | 177 | 6.4 | 17.7 | 0.00 | 0.00 | 0.00 | 38 | 998.7 |
| 20260504184432 | 22 | 229 | 6.4 | 24.1 | 0.00 | 0.00 | 0.00 | 36 | 998.8 |
| 20260504183704 | 22 | 227 | 6.4 | 24.1 | 0.00 | 0.00 | 0.00 | 36 | 998.9 |
| 20260504183157 | 22 | 260 | 8.0 | 22.5 | 0.00 | 0.00 | 0.00 | 36 | 998.9 |
| 20260504183134 | 22 | 215 | 8.0 | 22.5 | 0.00 | 0.00 | 0.00 | 35 | 999.0 |
| 20260504182145 | 22 | 261 | 6.4 | 20.9 | 0.00 | 0.00 | 0.00 | 36 | 999.0 |
| 20260504181640 | 22 | 227 | 8.0 | 16.1 | 0.00 | 0.00 | 0.00 | 36 | 999.1 |
| 20260504181132 | 22 | 195 | 8.0 | 20.9 | 0.00 | 0.00 | 0.00 | 35 | 999.1 |
| 20260504180634 | 22 | 240 | 8.0 | 20.9 | 0.00 | 0.00 | 0.00 | 35 | 999.3 |
| 20260504180132 | 22 | 191 | 6.4 | 16.1 | 0.00 | 0.00 | 0.00 | 36 | 999.2 |
| 20260504175632 | 22 | 202 | 6.4 | 16.1 | 0.00 | 0.00 | 0.00 | 36 | 999.3 |
| 20260504175131 | 22 | 242 | 8.0 | 19.3 | 0.00 | 0.00 | 0.00 | 37 | 999.5 |
| 20260504174630 | 22 | 299 | 8.0 | 19.3 | 0.00 | 0.00 | 0.00 | 36 | 999.6 |
| 20260504174130 | 22 | 188 | 8.0 | 16.1 | 0.00 | 0.00 | 0.00 | 37 | 999.6 |
| 20260504173628 | 22 | 248 | 6.4 | 22.5 | 0.00 | 0.00 | 0.00 | 36 | 999.6 |
| 20260504173126 | 22 | 261 | 4.8 | 22.5 | 0.00 | 0.00 | 0.00 | 37 | 999.7 |
| 20260504172627 | 22 | 242 | 3.2 | 14.5 | 0.00 | 0.00 | 0.00 | 36 | 999.7 |
| 20260504172127 | 22 | 226 | 4.8 | 24.1 | 0.00 | 0.00 | 0.00 | 39 | 999.8 |
| 20260504171626 | 21 | 207 | 6.4 | 24.1 | 0.00 | 0.00 | 0.00 | 40 | 999.9 |
| 20260504171122 | 21 | 236 | 6.4 | 22.5 | 0.00 | 0.00 | 0.00 | 39 | 1000.0 |
| 20260504170623 | 21 | 244 | 6.4 | 19.3 | 0.00 | 0.00 | 0.00 | 38 | 1000.0 |
| 20260504170343 | 21 | 222 | 8.0 | 22.5 | 0.00 | 0.00 | 0.00 | 40 | 1000.1 |
| 20260504151149 | 19 | 251 | 8.0 | 20.9 | 0.00 | 0.00 | 0.00 | 42 | 1001.4 |
| 20260504150423 | 19 | 314 | 8.0 | 19.3 | 0.00 | 0.00 | 0.00 | 42 | 1001.5 |
| 20260504141323 | 17 | 200 | 4.8 | 14.5 | 0.00 | 0.00 | 0.00 | 54 | 1001.6 |
| 20260504140817 | 17 | 190 | 3.2 | 8.0 | 0.00 | 0.00 | 0.00 | 56 | 1001.6 |
| 20260504140313 | 17 | 111 | 3.2 | 11.3 | 0.00 | 0.00 | 0.00 | 55 | 1001.6 |
| 20260504130706 | 15 | 210 | 3.2 | 9.7 | 0.00 | 0.00 | 0.00 | 65 | 1002.1 |
| 20260504130158 | 15 | 239 | 3.2 | 8.0 | 0.00 | 0.00 | 0.00 | 66 | 1002.0 |
| 20260504120139 | 10 | 269 | 3.2 | 11.3 | 0.00 | 0.00 | 0.00 | 81 | 1002.2 |
| 20260504110632 | 3 | 245 | 0.0 | 0.0 | 0.00 | 0.00 | 0.00 | 90 | 1002.6 |
| 20260504110133 | 3 | 245 | 0.0 | 0.0 | 0.00 | 0.00 | 0.00 | 90 | 1002.6 |
| 20260504100333 | 2 | 245 | 0.0 | 0.0 | 0.00 | 0.00 | 0.00 | 87 | 1002.5 |
| 20260504081912 | 2 | 245 | 0.0 | 0.0 | 0.00 | 0.00 | 0.00 | 83 | 1002.4 |
| 20260504081848 | 2 | 245 | 0.0 | 0.0 | 0.00 | 0.00 | 0.00 | 82 | 1002.5 |
| 20260504080901 | 2 | 245 | 0.0 | 0.0 | 0.00 | 0.00 | 0.00 | 82 | 1002.5 |
| 20260504080354 | 2 | 245 | 0.0 | 0.0 | 0.00 | 0.00 | 0.00 | 82 | 1002.5 |
| 20260504070242 | 3 | 245 | 0.0 | 0.0 | 0.00 | 0.00 | 0.00 | 81 | 1002.4 |
| 20260504060130 | 3 | 245 | 0.0 | 0.0 | 0.00 | 0.00 | 0.00 | 78 | 1002.4 |
| 20260504050524 | 4 | 245 | 0.0 | 0.0 | 0.00 | 0.00 | 0.00 | 76 | 1002.4 |
| 20260504050018 | 4 | 245 | 0.0 | 0.0 | 0.00 | 0.00 | 0.00 | 75 | 1002.4 |
| 20260504045512 | 4 | 245 | 0.0 | 0.0 | 0.00 | 0.00 | 0.00 | 75 | 1002.4 |
| 20260504045501 | 5 | 245 | 0.0 | 0.0 | 0.00 | 0.00 | 0.00 | 74 | 1002.3 |
| 20260504044509 | 5 | 245 | 0.0 | 0.0 | 0.00 | 0.00 | 0.00 | 73 | 1002.3 |
| 20260504044008 | 5 | 245 | 0.0 | 0.0 | 0.00 | 0.00 | 0.00 | 73 | 1002.3 |
| 20260504043505 | 5 | 245 | 0.0 | 0.0 | 0.00 | 0.00 | 0.00 | 73 | 1002.3 |
| 20260504043004 | 5 | 245 | 0.0 | 0.0 | 0.00 | 0.00 | 0.00 | 72 | 1002.2 |
| 20260504042500 | 5 | 245 | 0.0 | 0.0 | 0.00 | 0.00 | 0.00 | 72 | 1002.2 |
| 20260504041959 | 5 | 245 | 0.0 | 0.0 | 0.00 | 0.00 | 0.00 | 72 | 1002.1 |
| 20260504041457 | 5 | 245 | 0.0 | 0.0 | 0.00 | 0.00 | 0.00 | 72 | 1002.0 |
| 20260504040957 | 5 | 245 | 0.0 | 0.0 | 0.00 | 0.00 | 0.00 | 72 | 1002.0 |
| 20260504040713 | 5 | 245 | 0.0 | 0.0 | 0.00 | 0.00 | 0.00 | 71 | 1002.0 |
| 20260504035953 | 5 | 245 | 0.0 | 0.0 | 0.00 | 0.00 | 0.00 | 71 | 1002.0 |
| 20260504035449 | 5 | 245 | 0.0 | 0.0 | 0.00 | 0.00 | 0.00 | 70 | 1002.0 |
| 20260504034948 | 5 | 245 | 0.0 | 0.0 | 0.00 | 0.00 | 0.00 | 70 | 1001.9 |
| 20260504034713 | 5 | 245 | 0.0 | 0.0 | 0.00 | 0.00 | 0.00 | 70 | 1001.9 |
| 20260504033944 | 6 | 245 | 0.0 | 0.0 | 0.00 | 0.00 | 0.00 | 70 | 1001.8 |
| 20260504033443 | 6 | 245 | 0.0 | 0.0 | 0.00 | 0.00 | 0.00 | 69 | 1001.8 |
| 20260504032945 | 6 | 245 | 0.0 | 0.0 | 0.00 | 0.00 | 0.00 | 69 | 1001.8 |
| 20260504032702 | 6 | 245 | 0.0 | 0.0 | 0.00 | 0.00 | 0.00 | 69 | 1001.7 |
| 20260504032208 | 6 | 245 | 0.0 | 0.0 | 0.00 | 0.00 | 0.00 | 68 | 1001.8 |
| 20260504031441 | 6 | 245 | 0.0 | 0.0 | 0.00 | 0.00 | 0.00 | 67 | 1001.8 |
| 20260504030941 | 6 | 245 | 0.0 | 0.0 | 0.00 | 0.00 | 0.00 | 67 | 1001.7 |
| 20260504030437 | 6 | 245 | 0.0 | 0.0 | 0.00 | 0.00 | 0.00 | 67 | 1001.6 |
| 20260504025930 | 6 | 245 | 0.0 | 0.0 | 0.00 | 0.00 | 0.00 | 66 | 1001.7 |
| 20260504025424 | 6 | 245 | 0.0 | 0.0 | 0.00 | 0.00 | 0.00 | 66 | 1001.6 |
| 20260504024918 | 6 | 245 | 0.0 | 0.0 | 0.00 | 0.00 | 0.00 | 65 | 1001.7 |
| 20260504024640 | 7 | 245 | 0.0 | 0.0 | 0.00 | 0.00 | 0.00 | 64 | 1001.7 |
| 20260504023905 | 7 | 245 | 0.0 | 0.0 | 0.00 | 0.00 | 0.00 | 64 | 1001.8 |
| 20260504023400 | 7 | 245 | 0.0 | 0.0 | 0.00 | 0.00 | 0.00 | 63 | 1001.7 |
| 20260504022853 | 7 | 245 | 0.0 | 0.0 | 0.00 | 0.00 | 0.00 | 63 | 1001.7 |
| 20260504022348 | 7 | 245 | 0.0 | 0.0 | 0.00 | 0.00 | 0.00 | 62 | 1001.7 |
| 20260504022105 | 7 | 245 | 0.0 | 0.0 | 0.00 | 0.00 | 0.00 | 61 | 1001.6 |
| 20260504021336 | 7 | 245 | 0.0 | 0.0 | 0.00 | 0.00 | 0.00 | 60 | 1001.7 |
| 20260504020832 | 8 | 245 | 0.0 | 0.0 | 0.00 | 0.00 | 0.00 | 59 | 1001.7 |
| 20260504020323 | 8 | 245 | 0.0 | 0.0 | 0.00 | 0.00 | 0.00 | 59 | 1001.6 |
| 20260504015819 | 8 | 245 | 0.0 | 0.0 | 0.00 | 0.00 | 0.00 | 58 | 1001.6 |
| 20260504015312 | 8 | 245 | 0.0 | 0.0 | 0.00 | 0.00 | 0.00 | 58 | 1001.6 |
| 20260504015245 | 8 | 245 | 0.0 | 0.0 | 0.00 | 0.00 | 0.00 | 58 | 1001.5 |
| 20260504014259 | 8 | 245 | 0.0 | 0.0 | 0.00 | 0.00 | 0.00 | 57 | 1001.5 |
| 20260504013754 | 9 | 245 | 0.0 | 0.0 | 0.00 | 0.00 | 0.00 | 56 | 1001.5 |
| 20260504013248 | 9 | 245 | 0.0 | 0.0 | 0.00 | 0.00 | 0.00 | 55 | 1001.5 |
| 20260504012741 | 9 | 245 | 0.0 | 0.0 | 0.00 | 0.00 | 0.00 | 54 | 1001.4 |
| 20260504012236 | 10 | 245 | 0.0 | 0.0 | 0.00 | 0.00 | 0.00 | 54 | 1001.4 |
| 20260504011729 | 10 | 245 | 0.0 | 0.0 | 0.00 | 0.00 | 0.00 | 52 | 1001.4 |
| 20260504011224 | 10 | 245 | 0.0 | 0.0 | 0.00 | 0.00 | 0.00 | 50 | 1001.2 |
| 20260504010719 | 10 | 245 | 0.0 | 0.0 | 0.00 | 0.00 | 0.00 | 49 | 1001.2 |
| 20260504010212 | 11 | 245 | 0.0 | 0.0 | 0.00 | 0.00 | 0.00 | 48 | 1001.1 |
| 20260504005706 | 11 | 245 | 0.0 | 0.0 | 0.00 | 0.00 | 0.00 | 47 | 1001.1 |
| 20260504005200 | 11 | 245 | 0.0 | 0.0 | 0.00 | 0.00 | 0.00 | 45 | 1001.0 |
| 20260504004653 | 12 | 245 | 0.0 | 0.0 | 0.00 | 0.00 | 0.00 | 45 | 1001.0 |
| 20260504004147 | 12 | 245 | 0.0 | 0.0 | 0.00 | 0.00 | 0.00 | 44 | 1000.9 |
| 20260504003642 | 12 | 245 | 0.0 | 0.0 | 0.00 | 0.00 | 0.00 | 42 | 1000.9 |
| 20260504003136 | 12 | 245 | 0.0 | 0.0 | 0.00 | 0.00 | 0.00 | 42 | 1000.8 |
| 20260504002631 | 13 | 245 | 0.0 | 1.6 | 0.00 | 0.00 | 0.00 | 41 | 1000.6 |
| 20260504002349 | 13 | 245 | 0.0 | 6.4 | 0.00 | 0.00 | 0.00 | 41 | 1000.6 |
| 20260504001618 | 13 | 245 | 1.6 | 6.4 | 0.00 | 0.00 | 0.00 | 40 | 1000.6 |
| 20260504001112 | 13 | 247 | 1.6 | 4.8 | 0.00 | 0.00 | 0.00 | 40 | 1000.5 |
| 20260504000825 | 13 | 244 | 1.6 | 4.8 | 0.00 | 0.00 | 0.00 | 39 | 1000.5 |
| 20260504000106 | 13 | 246 | 1.6 | 8.0 | 0.00 | 0.00 | 0.00 | 39 | 1000.4 |
| 20260503235605 | 13 | 254 | 1.6 | 8.0 | 0.00 | 0.00 | 0.00 | 39 | 1000.4 |
| 20260503235601 | 13 | 233 | 3.2 | 11.3 | 0.00 | 0.00 | 0.00 | 39 | 1000.3 |
| 20260503234559 | 13 | 265 | 3.2 | 11.3 | 0.00 | 0.00 | 0.00 | 38 | 1000.3 |
| 20260503234059 | 13 | 252 | 3.2 | 11.3 | 0.00 | 0.00 | 0.00 | 38 | 1000.2 |
| 20260503233556 | 14 | 245 | 4.8 | 11.3 | 0.00 | 0.00 | 0.00 | 38 | 1000.3 |
| 20260503233058 | 14 | 252 | 4.8 | 16.1 | 0.00 | 0.00 | 0.00 | 37 | 1000.2 |
| 20260503232556 | 14 | 250 | 4.8 | 16.1 | 0.00 | 0.00 | 0.00 | 37 | 1000.2 |
| 20260503232056 | 14 | 250 | 3.2 | 14.5 | 0.00 | 0.00 | 0.00 | 38 | 1000.1 |
| 20260503231554 | 14 | 238 | 3.2 | 14.5 | 0.00 | 0.00 | 0.00 | 36 | 1000.1 |
| 20260503231320 | 14 | 249 | 3.2 | 14.5 | 0.00 | 0.00 | 0.00 | 37 | 1000.1 |
| 20260503230554 | 14 | 205 | 4.8 | 14.5 | 0.00 | 0.00 | 0.00 | 36 | 1000.1 |
| 20260503230319 | 14 | 229 | 4.8 | 12.9 | 0.00 | 0.00 | 0.00 | 36 | 1000.1 |
| 20260503225554 | 14 | 257 | 6.4 | 22.5 | 0.00 | 0.00 | 0.00 | 35 | 1000.0 |
| 20260503225054 | 14 | 262 | 6.4 | 22.5 | 0.00 | 0.00 | 0.00 | 35 | 1000.0 |
| 20260503224552 | 15 | 292 | 4.8 | 16.1 | 0.00 | 0.00 | 0.00 | 36 | 1000.0 |
| 20260503224054 | 15 | 288 | 3.2 | 14.5 | 0.00 | 0.00 | 0.00 | 36 | 1000.0 |
| 20260503223550 | 15 | 232 | 4.8 | 16.1 | 0.00 | 0.00 | 0.00 | 36 | 1000.0 |
| 20260503223051 | 15 | 292 | 6.4 | 24.1 | 0.00 | 0.00 | 0.00 | 34 | 1000.0 |
| 20260503222548 | 15 | 198 | 4.8 | 24.1 | 0.00 | 0.00 | 0.00 | 34 | 1000.0 |
| 20260503222049 | 15 | 221 | 6.4 | 22.5 | 0.00 | 0.00 | 0.00 | 33 | 1000.0 |
| 20260503221549 | 15 | 300 | 6.4 | 19.3 | 0.00 | 0.00 | 0.00 | 33 | 999.9 |
| 20260503221049 | 15 | 227 | 8.0 | 20.9 | 0.00 | 0.00 | 0.00 | 33 | 999.9 |
| 20260503220549 | 15 | 223 | 4.8 | 20.9 | 0.00 | 0.00 | 0.00 | 34 | 1000.0 |
| 20260503220143 | 16 | 263 | 3.2 | 14.5 | 0.00 | 0.00 | 0.00 | 33 | 999.9 |